Flag for Germany Weather past 2 weeks in Waiblingen, Baden-Württemberg, Germany

Now
48 °F

Passing clouds.


Feels Like: 46 °F
Forecast: 49 / 52 °F
Wind: 6 mph from North

Location: Stuttgart-Echterdingen

Current Time: Mar 28, 2015 at 12:08:38 PM

Latest Report: Mar 28, 2015 at 11:20 AM


Visibility: N/A

Pressure: 30.18 "Hg

Humidity: 46%

Dew point: 28 °F

Location of WaiblingenLocation

Historic Weather in Waiblingen — Graph

°F

Waiblingen temperature yesterday

Maximum temperature yesterday: 50 °F (at 12:50 PM)
Minimum temperature yesterday: 37 °F (at 10:50 PM)
Average temperature yesterday: 44 °F

Past Weeks' High & Low Weather Summary

 TemperatureHumidityPressure
High66 °F (Mar 17, 2:50 PM)100% (Mar 15, 5:50 AM)30.36 "Hg (Mar 15, 5:50 AM)
Low28 °F (Mar 14, 3:20 AM)29% (Mar 16, 3:20 PM)29.56 "Hg (Mar 25, 1:50 PM)
Average44 °F69%30.05 "Hg
* Reported Mar 13 10:20 AM — Mar 28 10:50 AM, Waiblingen, Weather by CustomWeather, © 2015

Note: Actual official high and low records may vary slightly from our data, if they occured in-between our weather recording intervals... More about our weather records

Advertising

Waiblingen weather history for previous 24 hours

 ConditionsComfort  
Time TempWeatherWind HumidityBarometerVisibility
10:50 AM
Sat, Mar 28
48 °FPassing clouds.6 mph46%30.18 "HgN/A
10:20 AM48 °FScattered clouds.6 mph46%30.18 "HgN/A
9:50 AM46 °FPartly sunny.7 mph50%30.21 "HgN/A
9:20 AM45 °FPartly sunny.7 mph57%30.21 "HgN/A
8:50 AM45 °FScattered clouds.6 mph61%30.21 "HgN/A
8:20 AM43 °FPartly sunny.6 mph66%30.21 "HgN/A
7:50 AM37 °FPartly sunny.6 mph81%30.21 "HgN/A
7:20 AM37 °FPartly sunny.7 mph75%30.21 "HgN/A
6:50 AM34 °FPartly sunny.7 mph87%30.24 "HgN/A
6:20 AM34 °FPartly sunny.6 mph81%30.24 "HgN/A
5:50 AM34 °FPassing clouds.7 mph75%30.21 "HgN/A
5:20 AM37 °FPassing clouds.6 mph75%30.21 "HgN/A
4:50 AM37 °FPassing clouds.7 mph75%30.24 "HgN/A
4:20 AM37 °FPassing clouds.7 mph81%30.24 "HgN/A
3:50 AM39 °FPassing clouds.5 mph70%30.24 "HgN/A
3:20 AM39 °FClear.6 mph70%30.24 "Hg10 mi
2:50 AM39 °FPassing clouds.8 mph70%30.24 "HgN/A
2:20 AM36 °FClear.8 mph81%30.24 "Hg10 mi
1:50 AM36 °FClear.8 mph75%30.24 "Hg10 mi
1:20 AM34 °FClear.9 mph81%30.24 "Hg10 mi
12:50 AM36 °FClear.8 mph81%30.24 "Hg10 mi
12:20 AM36 °FClear.8 mph81%30.24 "Hg10 mi
11:50 PM
Fri, Mar 27
39 °FClear.7 mph70%30.24 "Hg10 mi
11:20 PM37 °FClear.8 mph70%30.24 "Hg10 mi
10:50 PM37 °FClear.8 mph70%30.21 "Hg10 mi
10:20 PM39 °FClear.8 mph65%30.21 "Hg10 mi
9:50 PM43 °FClear.13 mph61%30.21 "Hg10 mi
9:20 PM45 °FClear.13 mph57%30.21 "Hg10 mi
8:50 PM45 °FClear.7 mph61%30.21 "Hg10 mi
8:20 PM45 °FClear.8 mph57%30.18 "Hg10 mi
7:50 PM46 °FClear.8 mph53%30.18 "Hg10 mi
7:20 PM46 °FClear.9 mph53%30.18 "Hg10 mi
6:50 PM48 °FClear.13 mph46%30.15 "Hg10 mi
6:20 PM48 °FSunny.14 mph46%30.15 "Hg10 mi
5:50 PM48 °FSunny.13 mph50%30.15 "Hg10 mi
5:20 PM48 °FSunny.13 mph50%30.12 "Hg10 mi
4:50 PM48 °FSunny.15 mph50%30.12 "Hg10 mi
4:20 PM48 °FSunny.15 mph46%30.12 "Hg10 mi
3:50 PM48 °FBroken clouds.18 mph50%30.09 "HgN/A
3:20 PM48 °FBroken clouds.17 mph50%30.09 "HgN/A
2:50 PM48 °FBroken clouds.15 mph54%30.09 "HgN/A
2:20 PM48 °FBroken clouds.20 mph54%30.09 "HgN/A
1:50 PM48 °FBroken clouds.15 mph54%30.09 "HgN/A
1:20 PM48 °FBroken clouds.13 mph50%30.09 "HgN/A
12:50 PM50 °FPartly sunny.17 mph50%30.07 "HgN/A
12:20 PM46 °FBroken clouds.15 mph53%30.07 "HgN/A
Weather by CustomWeather, © 2015

See weather overviewHow to use our weather pages